This is the latest recevied weather packets stored in our database for station/object KC1ELF. If no packets are shown the sender has not sent any weather packets the latest 10 day(s).
| Time | Temp. | Humidity | Pressure | Rain* | Wind** | Luminosity | Snow |
|---|---|---|---|---|---|---|---|
| 1777829496 | 10° C | 57% | 1005.2 hPa | 0 mm | - | - | - |
| 1777828895 | 10.56° C | 58% | 1005.2 hPa | 0 mm | - | - | - |
| 1777828295 | 10.56° C | 61% | 1005.2 hPa | 0 mm | - | - | - |
| 1777827695 | 10° C | 61% | 1005.1 hPa | 0 mm | - | - | - |
| 1777827095 | 9.44° C | 64% | 1005.4 hPa | 0 mm | - | - | - |
| 1777826496 | 8.89° C | 63% | 1005.3 hPa | 0 mm | - | - | - |
| 1777825896 | 8.89° C | 64% | 1005.4 hPa | 0 mm | - | - | - |
| 1777825295 | 8.89° C | 70% | 1005.4 hPa | 0 mm | - | - | - |
| 1777824696 | 8.33° C | 71% | 1005.5 hPa | 0 mm | - | - | - |
| 1777824094 | 8.33° C | 72% | 1005.4 hPa | 0 mm | - | - | - |
| 1777823495 | 8.89° C | 71% | 1005.7 hPa | 0 mm | - | - | - |
| 1777822895 | 8.33° C | 74% | 1005.5 hPa | 0 mm | - | - | - |
| 1777822295 | 8.33° C | 74% | 1005.5 hPa | 0 mm | - | - | - |
| 1777821695 | 8.33° C | 74% | 1005.6 hPa | 0 mm | - | - | - |
| 1777821096 | 7.78° C | 74% | 1005.6 hPa | 0 mm | - | - | - |
| 1777820495 | 7.78° C | 77% | 1005.5 hPa | 0 mm | - | - | - |
| 1777819895 | 8.33° C | 75% | 1005.7 hPa | 0 mm | - | - | - |
| 1777819295 | 8.33° C | 76% | 1005.5 hPa | 0 mm | - | - | - |
| 1777818695 | 8.33° C | 77% | 1005.5 hPa | 0 mm | - | - | - |
| 1777818095 | 8.33° C | 78% | 1005.4 hPa | 0 mm | - | - | - |
| 1777817496 | 8.33° C | 78% | 1005.5 hPa | 0 mm | - | - | - |
| 1777816895 | 8.33° C | 80% | 1005.5 hPa | 0 mm | - | - | - |
| 1777816295 | 8.33° C | 80% | 1005.6 hPa | 0 mm | - | - | - |
| 1777815695 | 7.78° C | 81% | 1005.6 hPa | 0 mm | - | - | - |
| 1777815095 | 7.78° C | 81% | 1005.7 hPa | 0 mm | - | - | - |
* Rain latest hour (hover to see other rain measurements)
** Current wind speed in m/s (hover to see current wind gust speed)